Regional Weather Roundup
Issued by NWS

Home | Current Version | Previous Version | Text Only | Print | Product List | Glossary On
Versions: 1 2 3 4 5 6 7 8 9 10 11 12 13 14 15 16 17 18 19 20 21 22 23 24 25 26 27 28 29 30 31 32 33 34 35 36 37 38 39 40 41 42 43 44 45 46 47 48 49 50
000
ASUS43 KLSX 011359
RWRMO

WEATHER SUMMARY FOR MISSOURI
NATIONAL WEATHER SERVICE SPRINGFIELD MO
900 AM CDT FRI AUG 01 2014

NOTE: "FAIR" INDICATES FEW OR NO CLOUDS BELOW 12,000 FEET WITH NO
       SIGNIFICANT WEATHER AND/OR OBSTRUCTIONS TO VISIBILITY.
       CURRENT SKY AND/OR WEATHER CONDITIONS ARE NOT AVAILABLE FOR
       CHILLICOTHE AND FARMINGTON.

MOZ001>031-035>038-043-044-053-054-011500-
...NORTHERN AND WESTERN MISSOURI...

CITY           SKY/WX    TMP DP  RH WIND       PRES   REMARKS
KANSAS CTY INT LGT RAIN  70  62  76 E5        30.09R
KANSAS C DTWN  CLOUDY    71  62  73 E6        30.08R
LEE`S SUMMIT   CLOUDY    70  61  73 NE7       30.10R
ST JOSEPH      CLOUDY    71  64  78 CALM      30.08R
CHILLICOTHE      N/A     71  61  70 NE3       30.11R
KIRKSVILLE     PTSUNNY   72  60  66 W6        30.11R

$$
MOZ066>068-077>081-088>096-101>105-011500-
...SOUTHWEST MISSOURI...

CITY           SKY/WX    TMP DP  RH WIND       PRES   REMARKS
SPRINGFIELD    CLOUDY    64  64 100 SW3       30.12R FOG
JOPLIN         CLOUDY    67  66  97 SW3       30.12R FOG

$$
MOZ032>034-039>042-045>050-055>058-069>072-011500-
...CENTRAL MISSOURI...

CITY           SKY/WX    TMP DP  RH WIND       PRES   REMARKS
COLUMBIA       MOSUNNY   71  62  73 W5        30.09R
JEFFERSON CITY SUNNY     71  64  78 CALM      30.08S
ROLLA          SUNNY     71  64  78 SW5       30.09S
SEDALIA        MOSUNNY   73  65  75 W3        30.10R
OSAGE BEACH    SUNNY     70  63  78 S5        30.10S

$$
MOZ051-052-059>065-011500-
...EAST CENTRAL MISSOURI...

CITY           SKY/WX    TMP DP  RH WIND       PRES   REMARKS
ST LOUIS INTL  MOSUNNY   77  66  68 CALM      30.10R
SPIRIT OF STL  MOSUNNY   73  65  75 CALM      30.08S
ST CHARLES     SUNNY     72  66  81 VRB3      30.08S

$$
MOZ072>076-082>087-097>100-106>115-011500-
...SOUTH CENTRAL AND SOUTHEAST MISSOURI...

CITY           SKY/WX    TMP DP  RH WIND       PRES   REMARKS
CAPE GIRARDEAU PTSUNNY   71  67  87 CALM      30.10R FOG
FARMINGTON     CLOUDY    66  64  94 CALM      30.13S
POPLAR BLUFF   CLOUDY    71  66  84 CALM      30.09S
WEST PLAINS    CLOUDY    65  63  93 CALM      30.14R

$$


USA.gov is the U.S. government's official web portal to all federal, state and local government web resources and services.